Powrót do katalogu

QIANFAN-206

AktywnyŁącznośćPO
NORAD 69805·PAYLOAD·🇨🇳 China

Wystrzelony Jul 4, 2026 z Taiyuan Satellite Launch Center

Loading…

Następne Przeloty (najbliższe 24 godziny)

TLE

ŚwieżeSource: Space-Track

Epoka: Sep 14, 2026, 19:50 UTC

1 69805U 26153F   26257.82692021 -.01899425  00000-0 -12513+1 0  9999
2 69805  88.9974 352.0565 0009270 349.6843  10.4147 14.05643506 10277

Śledź QIANFAN-206 w czasie rzeczywistym z AllMySat

Download on the App Store